Flag for Ireland Weather past 2 weeks in Galway, Ireland

Now
73 °F

Partly sunny.


Feels Like: 76 °F
Forecast: 62 / 71 °F
Wind: 10 mph from South

Location: Shannon Airport

Current Time: Jul 22, 2014 at 9:24:02 PM

Latest Report: Jul 22, 2014 at 6:00 PM


Visibility: N/A

Pressure: 30.18 "Hg

Humidity: 65%

Dew point: 61 °F

Location of GalwayLocation

Historic Weather in Galway — Graph

°F

Galway temperature yesterday

Maximum temperature yesterday: 72 °F (at 3:00 PM)
Minimum temperature yesterday: 59 °F (at 12:00 AM)
Average temperature yesterday: 66 °F

Past Weeks' High & Low Weather Summary

 TemperatureHumidityPressure
High77 °F (Jul 22, 4:00 PM)100% (Jul 10, 12:30 AM)30.33 "Hg (Jul 10, 12:30 AM)
Low48 °F (Jul 9, 5:00 AM)46% (Jul 15, 2:30 PM)29.68 "Hg (Jul 19, 4:00 PM)
Average63 °F80%30.01 "Hg
* Reported Jul 7 5:00 PM — Jul 22 5:30 PM, Galway, Weather by CustomWeather, © 2014

Note: Actual official high and low records may vary slightly from our data, if they occured in-between our weather recording intervals... More about our weather records

Advertising

Galway weather history for previous 24 hours

 ConditionsComfort  
Time TempWeatherWind HumidityBarometerVisibility
5:30 PM
Jul 22
73 °FSprinkles. Broken clouds.12 mph69%30.18 "HgN/A
5:00 PM73 °FPartly sunny.14 mph69%30.18 "HgN/A
4:30 PM75 °FPartly sunny.12 mph65%30.18 "HgN/A
4:00 PM77 °FPartly sunny.12 mph61%30.18 "HgN/A
3:30 PM75 °FScattered clouds.12 mph65%30.18 "HgN/A
3:00 PM75 °FBroken clouds.10 mph69%30.18 "HgN/A
2:30 PM75 °FBroken clouds.12 mph65%30.18 "HgN/A
2:00 PM75 °FBroken clouds.12 mph65%30.18 "HgN/A
1:30 PM75 °FBroken clouds.9 mph69%30.18 "HgN/A
1:00 PM75 °FBroken clouds.12 mph69%30.18 "HgN/A
12:30 PM73 °FBroken clouds.12 mph69%30.18 "HgN/A
12:00 PM73 °FBroken clouds.10 mph74%30.18 "HgN/A
11:30 AM72 °FBroken clouds.8 mph78%30.18 "HgN/A
11:00 AM72 °FPartly sunny.10 mph78%30.18 "HgN/A
10:30 AM70 °FPartly sunny.9 mph83%30.18 "HgN/A
10:00 AM68 °FBroken clouds.8 mph88%30.18 "HgN/A
9:30 AM68 °FPartly sunny.9 mph88%30.18 "HgN/A
9:00 AM68 °FPartly sunny.9 mph88%30.18 "HgN/A
8:30 AM66 °FPartly sunny.9 mph94%30.18 "HgN/A
8:00 AM66 °FPartly sunny.8 mph94%30.18 "HgN/A
7:30 AM66 °FPartly sunny.8 mph88%30.15 "HgN/A
7:00 AM64 °FPartly sunny.8 mph94%30.15 "HgN/A
6:30 AM64 °FPassing clouds.8 mph94%30.15 "HgN/A
6:00 AM64 °FPassing clouds.7 mph94%30.15 "HgN/A
5:30 AM64 °FPartly cloudy.6 mph94%30.15 "HgN/A
5:00 AM64 °FPartly cloudy.8 mph100%30.15 "HgN/A
4:30 AM66 °FPassing clouds.8 mph94%30.15 "HgN/A
4:00 AM66 °FPartly cloudy.7 mph94%30.15 "HgN/A
3:30 AM66 °FPartly cloudy.6 mph94%30.15 "HgN/A
3:00 AM66 °FPartly cloudy.6 mph94%30.15 "HgN/A
2:30 AM66 °FOvercast.5 mph94%30.15 "HgN/A
2:00 AM66 °FPassing clouds.5 mph94%30.15 "HgN/A
1:30 AM66 °FPassing clouds.6 mph94%30.15 "HgN/A
1:00 AM66 °FPartly cloudy.6 mph94%30.15 "HgN/A
12:30 AM66 °FPartly cloudy.5 mph94%30.15 "HgN/A
12:00 AM68 °FPartly cloudy.6 mph94%30.15 "HgN/A
11:30 PM
Jul 21
68 °FPassing clouds.5 mph94%30.15 "HgN/A
11:00 PM68 °FLight rain. Partly cloudy.6 mph88%30.15 "HgN/A
10:30 PM68 °FPartly sunny.8 mph88%30.12 "HgN/A
10:00 PM70 °FLight rain. Broken clouds.8 mph88%30.12 "HgN/A
9:30 PM70 °FBroken clouds.8 mph83%30.12 "HgN/A
9:00 PM70 °FBroken clouds.7 mph83%30.12 "HgN/A
Weather by CustomWeather, © 2014

See weather overviewHow to use our weather pages